Weather History for Calgary Springbank, AB

Change the Weather History Date:

Friday, October 31, 2014

  Actual Average Record
Temperature  
Mean Temperature 40 °F -  
Max Temperature 55 °F 34 °F 57 °F (2008)
Min Temperature 26 °F 14 °F -9 °F (2003)
Degree Days  
Heating Degree Days 24    
Moisture  
Dew Point 32 °F    
Average Humidity 81    
Maximum Humidity 100    
Minimum Humidity 51    
Precipitation  
Precipitation 0.00 in - - ()
Sea Level Pressure  
Sea Level Pressure 29.77 in    
Wind  
Wind Speed 4 mph ()    
Max Wind Speed 13 mph    
Max Gust Speed -    
Visibility 9.0 miles    
Events      
Averages and records for this station are not official NWS values.
T = Trace of Precipitation, MM = Missing Value Source: Averaged Metar Reports

Daily Weather History Graph

Daily Weather History Graph

Search for Another Location

Airport:

Trip Planner

Search our weather history database for the weather conditions in past years. The results will help you decide how hot, cold, wet, or windy it might be!

Date:

Astronomy

Oct. 31, 2014 Rise Set
Actual Time 8:28 AM MDT 6:12 PM MDT
Civil Twilight 7:53 AM MDT 6:47 PM MDT
Nautical Twilight 7:14 AM MDT 7:26 PM MDT
Astronomical Twilight 6:36 AM MDT 8:05 PM MDT
Moon 3:11 PM MDT (10/31) 12:36 AM MDT (10/31)
Length of Visible Light 10h 54m
Length of Day
9h 44m
First Quarter, 57% of the Moon is Illuminated
Oct 31
First Quarter
Nov 6
Full
Nov 14
Last Quarter
Nov 22
New
Nov 29
First Quarter

Hourly Weather History & Observations

Time (MDT) Temp. Windchill Dew Point Humidity Pressure Visibility Wind Dir Wind Speed Gust Speed Precip Events Conditions
12:00 AM 33.8 °F 28.6 °F 32.0 °F 93% 29.97 in 9.0 mi East 5.8 mph - N/A   Overcast
1:00 AM 30.2 °F - 28.4 °F 93% 29.94 in 9.0 mi Variable 2.3 mph - N/A   Partly Cloudy
2:00 AM 26.6 °F - 26.6 °F 100% 29.92 in 9.0 mi Variable 2.3 mph - N/A   Mostly Cloudy
3:00 AM 28.4 °F - 28.4 °F 100% 29.89 in 9.0 mi Calm Calm - N/A   Overcast
4:00 AM 28.4 °F 23.3 °F 28.4 °F 100% 29.86 in 9.0 mi NW 4.6 mph - N/A   Overcast
5:00 AM 28.4 °F 23.3 °F 26.6 °F 93% 29.84 in 9.0 mi NNW 4.6 mph - N/A   Overcast
6:00 AM 28.4 °F 23.3 °F 28.4 °F 100% 29.81 in 9.0 mi North 4.6 mph - N/A   Mostly Cloudy
7:00 AM 26.6 °F 21.2 °F 26.6 °F 100% 29.78 in 9.0 mi NW 4.6 mph - N/A   Overcast
8:00 AM 30.2 °F 24.3 °F 28.4 °F 93% 29.75 in 9.0 mi NW 5.8 mph - N/A   Overcast
9:00 AM 30.2 °F 23.4 °F 28.4 °F 93% 29.74 in 9.0 mi NNW 6.9 mph - N/A   Mostly Cloudy
10:00 AM 35.6 °F 31.7 °F 33.8 °F 93% 29.73 in 9.0 mi NW 4.6 mph - N/A   Scattered Clouds
11:00 AM 37.4 °F 33.8 °F 35.6 °F 93% 29.72 in 9.0 mi WNW 4.6 mph - N/A   Mostly Cloudy
12:00 PM 42.8 °F 41.1 °F 35.6 °F 76% 29.70 in 9.0 mi NW 3.5 mph - N/A   Overcast
1:00 PM 50.0 °F - 35.6 °F 58% 29.68 in 9.0 mi NE 3.5 mph - N/A   Partly Cloudy
2:00 PM 53.6 °F - 37.4 °F 54% 29.67 in 9.0 mi NNE 3.5 mph - N/A   Overcast
3:00 PM 53.6 °F - 37.4 °F 54% 29.66 in 9.0 mi North 4.6 mph - N/A   Mostly Cloudy
4:00 PM 55.4 °F - 37.4 °F 51% 29.67 in 9.0 mi NE 4.6 mph - N/A   Overcast
4:58 PM 48.2 °F - 35.6 °F 62% 29.70 in 9.0 mi NNW 11.5 mph - N/A   Overcast
5:00 PM 48.2 °F - 35.6 °F 62% 29.70 in 9.0 mi NNW 12.7 mph - N/A   Overcast
6:00 PM 46.4 °F 41.1 °F 33.8 °F 62% 29.73 in 9.0 mi North 11.5 mph - N/A   Overcast
7:00 PM 44.6 °F 40.2 °F 33.8 °F 66% 29.75 in 9.0 mi NNW 8.1 mph - N/A   Overcast
8:00 PM 42.8 °F 40.1 °F 33.8 °F 70% 29.75 in 9.0 mi NW 4.6 mph - N/A   Overcast
9:00 PM 37.4 °F 31.4 °F 32.0 °F 81% 29.78 in 9.0 mi North 8.1 mph - N/A   Clear
10:00 PM 33.8 °F 30.8 °F 32.0 °F 93% 29.77 in 9.0 mi NNE 3.5 mph - N/A   Clear
11:00 PM 35.6 °F - 32.0 °F 87% 29.77 in 9.0 mi North 2.3 mph - N/A   Partly Cloudy